[[{"header":{"parameterUnit":"m.s-1","parameterCategory":1,"la1":30.2991,"la2":30.254,"lo1":-89.0895,"lo2":-89.0444,"dy":0.0017,"dx":0.0017,"nx":28,"ny":28,"refTime":"2024-08-11T21:00:00:Z","depth":0,"parameterNumber":2,"parameterNumberName":"U-component_of_WINDS"},"data":[0,0,0,0,0,0,0,0,0,0,0,0,0,0,0,0,0,0,0,0,0,0,0,0,0,0,0,0,0,0,0,0,0,0,0,0,0,0,0,0,0,0,0,0,0,0,0,0,0,0,0,0,0,0,0,0,0,0,4.3371,4.3372,0,4.3491,4.3493,4.3494,4.3387,4.3383,4.3379,4.3375,4.35,4.3507,4.3514,0,0,0,0,0,0,0,0,0,0,0,0,0,4.3049,4.3056,4.3371,4.3372,4.3374,4.3491,4.3493,4.3494,4.3388,4.3383,4.3378,4.3373,4.3497,4.3506,4.3515,0,0,0,0,0,0,0,0,0,0,0,0,0,4.3181,4.3058,4.337,4.3335,4.3333,4.3491,4.3493,4.3495,4.3389,4.3383,4.3376,4.337,4.3494,4.3505,4.3516,4.3716,0,0,4.355,4.3555,0,0,0,0,0,0,0,0,4.3174,4.3193,4.3339,4.3338,4.3336,4.3417,4.3425,4.3569,4.3391,4.3368,4.3374,4.3367,4.3478,4.349,4.3527,4.3722,4.3727,4.3551,4.3558,4.3562,4.3566,0,0,0,0,0,0,0,4.3165,4.3188,4.3418,4.3341,4.3339,4.3313,4.3325,4.3452,4.3458,4.3369,4.3362,4.3378,4.3476,4.3516,4.3529,4.3729,4.3551,4.356,4.3567,4.3572,4.4092,4.4098,0,0,0,0,0,0,4.3159,4.3181,4.3414,4.3422,4.3237,4.3324,4.3337,4.3398,4.3456,4.3459,4.3383,4.3372,4.3501,4.3516,4.3533,4.3768,4.3562,4.3573,4.3579,4.4084,4.4093,4.4101,0,0,0,0,0,0,4.3153,4.3181,4.341,4.3299,4.3326,4.3337,4.3406,4.3404,4.3444,4.3467,4.3467,4.3423,4.3496,4.3517,4.367,4.3771,4.3578,4.3588,4.4076,4.4087,4.4097,4.4243,0,0,0,0,0,0,4.3144,4.318,4.3255,4.3302,4.3333,4.3545,4.3412,4.3411,4.3463,4.345,4.3505,4.3507,4.3493,4.3654,4.3682,4.3783,4.3597,4.4067,4.4081,4.4094,4.4229,4.4257,4.4281,0,0,0,0,0,4.3133,4.3292,4.326,4.3289,4.3428,4.3551,4.3569,4.3548,4.3472,4.3548,4.3562,4.3506,4.3757,4.3671,4.3701,4.3807,4.406,4.4077,4.4093,4.4217,4.4251,4.428,0,0,0,0,0,0,4.3258,4.3298,4.3262,4.3441,4.3494,4.3533,4.3628,4.3585,4.3661,4.3645,4.3617,4.363,4.3791,4.3815,4.3719,4.4003,4.3896,4.3919,4.3981,4.4014,4.4039,4.4029,4.3606,0,0,0,0,0,4.3306,4.3403,4.3433,4.3588,4.3616,4.3618,4.3671,4.3651,4.3704,4.3726,4.3751,4.3806,4.3896,4.3957,4.4042,4.4233,4.4242,4.4321,4.4347,4.4368,4.4387,4.4488,4.4522,4.4154,4.4154,4.4153,0,0,4.3407,4.3441,4.3504,4.3614,4.3652,4.3753,4.3637,4.3749,4.3823,4.3743,4.3888,4.3909,4.3968,4.414,4.4218,4.4165,4.4492,4.4389,4.4405,4.4413,4.4508,4.4543,4.4574,4.4165,4.4163,4.4161,0,0,4.3642,4.3678,4.381,4.385,4.3909,4.391,4.3942,4.3988,4.3998,4.4144,4.4085,4.4174,4.4331,4.4375,4.4418,4.4669,4.4619,4.4698,4.4834,4.4932,4.4961,4.4987,4.5074,4.5106,4.4718,4.4718,4.4718,0,4.3759,4.3908,4.3883,4.3999,4.4048,4.398,4.4113,4.4154,4.4239,4.4274,4.4214,4.441,4.4445,4.4625,4.4686,4.4724,4.4759,4.469,4.4959,4.4984,4.5008,4.5091,4.5124,4.4727,4.4726,4.4725,4.4724,0,4.4049,4.4153,4.4253,4.4335,4.4396,4.452,4.4514,4.4579,4.4554,4.456,4.4709,4.4749,4.4839,4.4882,4.4859,4.5059,4.5024,4.4963,4.4855,4.5052,4.513,4.5161,4.474,4.4737,4.4734,4.4732,0,0,4.4363,4.443,4.4467,4.4502,4.4563,4.4643,4.4764,4.4852,4.4908,4.4969,4.5068,4.5204,4.5146,4.5195,4.5177,4.5264,4.5457,4.5191,4.5192,4.5237,4.5679,4.5722,4.576,4.5426,4.5432,4.5437,4.5673,0,4.4598,4.4807,4.4788,4.4986,4.5081,4.5018,4.5123,4.5172,4.5182,4.5264,4.5275,4.537,4.5289,4.5318,4.5401,4.5416,4.5545,4.5399,4.5517,4.5522,4.5501,4.58,4.5847,4.6068,4.5703,4.5708,4.5712,0,4.4899,4.4969,4.5176,4.5221,4.526,4.5355,4.5433,4.5514,4.5567,4.5568,4.5623,4.559,4.5711,4.5603,4.5769,4.567,4.5718,4.5733,4.5741,4.5749,4.5627,4.5814,4.6138,4.617,4.576,4.5756,4.5753,0,4.5104,4.5251,4.5393,4.5426,4.5483,4.555,4.5577,4.5624,4.5678,4.5748,4.5782,4.5866,4.5911,4.5977,4.5966,4.5889,4.6136,4.6027,4.6138,4.6139,4.6191,4.6187,4.6525,4.6227,4.6227,4.6226,4.6225,0,4.5366,4.5494,4.5485,4.5573,4.5715,4.5693,4.5834,4.5853,4.5896,4.5986,4.5938,4.6023,4.6006,4.6091,4.6085,4.6222,4.6244,4.6247,4.6243,4.625,4.6249,4.6279,4.6262,4.6235,4.6233,4.6231,4.6229,0,4.5617,4.5617,4.5768,4.5809,4.5822,4.5925,4.596,4.6043,4.6049,4.6163,4.6189,4.6199,4.6297,4.6294,4.6405,4.6401,4.6569,4.6549,4.655,4.6545,4.6656,4.6645,4.7022,4.7069,4.6744,4.6747,4.675,0,4.5783,4.588,4.5932,4.5988,4.6019,4.6111,4.6165,4.6148,4.6207,4.6275,4.6349,4.6443,4.6516,4.6675,4.6692,4.6777,4.6757,4.6884,4.6769,4.6772,4.6756,4.6749,4.6757,4.6905,4.6909,4.6912,4.6914,0,4.6076,4.6071,4.6151,4.6232,4.6298,4.636,4.6418,4.6467,4.6456,4.6524,4.6623,4.668,4.6793,4.6886,4.6968,4.6995,4.6953,4.695,4.698,4.6986,4.6982,4.6983,4.6608,4.6941,4.6938,4.6936,4.6935,4.6934,4.6288,4.6371,4.6419,4.651,4.6551,4.6606,4.6685,4.6701,4.6783,4.6873,4.6858,4.6968,4.7019,4.7124,4.716,4.7246,4.7201,4.7245,4.7255,4.7266,4.7277,4.6971,4.7261,4.726,4.7259,4.7259,4.7258,0,4.6576,4.6604,4.6688,4.6769,4.684,4.6795,4.6856,4.6918,4.7016,4.7067,4.714,4.7253,4.7343,4.7368,4.7454,4.7518,4.7501,4.7541,4.7535,4.7541,4.7313,4.7277,4.7553,4.7553,4.7553,4.7553,4.7553,4.7553,4.6734,4.6871,4.6872,4.7028,4.7056,4.7163,4.7201,4.7251,4.7291,4.742,4.7494,4.7509,4.755,4.7639,4.7719,4.7724,4.7757,4.7804,4.7802,4.7587,4.7558,4.7529,4.7495,4.7812,4.7813,4.8022,4.8024,4.8025]},{"header":{"parameterUnit":"m.s-1","parameterCategory":1,"la1":30.2991,"la2":30.254,"lo1":-89.0895,"lo2":-89.0444,"dy":0.0017,"dx":0.0017,"nx":28,"ny":28,"refTime":"2024-08-11T21:00:00:Z","depth":0,"parameterNumber":3,"parameterNumberName":"V-component_of_WINDS"},"data":[0,0,0,0,0,0,0,0,0,0,0,0,0,0,0,0,0,0,0,0,0,0,0,0,0,0,0,0,0,0,0,0,0,0,0,0,0,0,0,0,0,0,0,0,0,0,0,0,0,0,0,0,0,0,0,0,0,0,1.6548,1.6548,0,1.6538,1.6538,1.6538,1.6481,1.648,1.6479,1.6477,1.6467,1.6468,1.6469,0,0,0,0,0,0,0,0,0,0,0,0,0,1.6518,1.6519,1.6548,1.6548,1.6548,1.6538,1.6538,1.6538,1.6482,1.648,1.6478,1.6477,1.6467,1.6468,1.6469,0,0,0,0,0,0,0,0,0,0,0,0,0,1.6522,1.652,1.6548,1.6519,1.6516,1.6538,1.6538,1.6538,1.6482,1.648,1.6478,1.6476,1.6466,1.6468,1.6469,1.6519,0,0,1.6474,1.6474,0,0,0,0,0,0,0,0,1.6522,1.6523,1.6523,1.6521,1.6518,1.6509,1.6523,1.6531,1.6482,1.6495,1.6477,1.6475,1.6483,1.6483,1.6485,1.6519,1.6518,1.6474,1.6475,1.6476,1.6476,0,0,0,0,0,0,0,1.6522,1.6523,1.6544,1.6523,1.652,1.6506,1.6504,1.6525,1.65,1.6494,1.649,1.6489,1.6481,1.6484,1.6485,1.6518,1.6474,1.6475,1.6476,1.6477,1.6589,1.6591,0,0,0,0,0,0,1.6526,1.6524,1.6545,1.6544,1.6515,1.6508,1.6506,1.6514,1.65,1.6496,1.6491,1.6486,1.6482,1.6483,1.6484,1.6539,1.6476,1.6477,1.6478,1.6587,1.6589,1.6592,0,0,0,0,0,0,1.6525,1.6528,1.6545,1.6533,1.6534,1.6511,1.652,1.6515,1.6518,1.6498,1.6493,1.6499,1.6481,1.6482,1.651,1.6538,1.6478,1.6479,1.6584,1.6588,1.659,1.6652,0,0,0,0,0,0,1.6525,1.6528,1.6547,1.6533,1.6535,1.6572,1.6522,1.6516,1.652,1.6515,1.6504,1.65,1.6479,1.6508,1.6512,1.6539,1.648,1.6582,1.6586,1.6589,1.6647,1.6657,1.6665,0,0,0,0,0,1.6524,1.6566,1.6549,1.6552,1.6558,1.6574,1.6574,1.6549,1.6523,1.6541,1.6528,1.65,1.6535,1.6512,1.6515,1.6544,1.658,1.6585,1.6589,1.6643,1.6655,1.6665,0,0,0,0,0,0,1.6585,1.6564,1.6544,1.6583,1.658,1.6564,1.6587,1.6563,1.6568,1.6562,1.6531,1.6529,1.6562,1.6556,1.653,1.659,1.6552,1.6558,1.6593,1.6603,1.6612,1.6613,1.6481,0,0,0,0,0,1.6602,1.6617,1.6598,1.6634,1.6633,1.6611,1.6617,1.6597,1.6594,1.6592,1.6581,1.6578,1.6588,1.6596,1.6604,1.6646,1.6642,1.6667,1.6676,1.6684,1.6689,1.6708,1.6719,1.6607,1.6607,1.6607,0,0,1.664,1.663,1.6641,1.6646,1.6641,1.6657,1.661,1.6629,1.6639,1.6595,1.662,1.6612,1.6607,1.6642,1.6657,1.6638,1.6718,1.669,1.6696,1.6697,1.6714,1.6725,1.6734,1.661,1.661,1.6609,0,0,1.6714,1.6709,1.6738,1.6734,1.6728,1.6712,1.6719,1.6705,1.6698,1.6723,1.6689,1.6702,1.672,1.6717,1.6718,1.679,1.6763,1.6793,1.6839,1.6859,1.6868,1.6875,1.6899,1.6908,1.6798,1.6798,1.6799,0,1.6761,1.6783,1.6755,1.6775,1.6778,1.6738,1.6765,1.6763,1.676,1.6763,1.6741,1.6762,1.6756,1.6788,1.6805,1.6808,1.6814,1.6794,1.6869,1.6876,1.6883,1.6905,1.6914,1.6802,1.6802,1.6801,1.6801,0,1.684,1.6856,1.6879,1.6876,1.6881,1.6905,1.688,1.6889,1.6869,1.6855,1.688,1.6871,1.6876,1.6882,1.6864,1.6912,1.69,1.6874,1.6836,1.6897,1.6918,1.6926,1.6807,1.6806,1.6805,1.6804,0,0,1.6954,1.6934,1.6943,1.694,1.6929,1.694,1.6962,1.6966,1.6973,1.6972,1.6988,1.7004,1.6979,1.698,1.6961,1.6978,1.7033,1.695,1.6949,1.6965,1.7084,1.7103,1.7113,1.7016,1.7018,1.7019,1.7084,0,1.7024,1.706,1.7034,1.7074,1.7087,1.7048,1.7066,1.7062,1.7049,1.7058,1.7044,1.7054,1.7022,1.7022,1.7038,1.7023,1.7057,1.7019,1.703,1.7031,1.7032,1.7124,1.7144,1.7206,1.7092,1.7093,1.7094,0,1.7112,1.7113,1.7154,1.7138,1.7142,1.716,1.716,1.7169,1.7162,1.7152,1.7152,1.7127,1.7146,1.7109,1.7134,1.7109,1.7112,1.7106,1.7107,1.7107,1.7066,1.7125,1.7225,1.7234,1.7107,1.7106,1.7105,0,1.7188,1.7201,1.7226,1.7225,1.7208,1.722,1.7214,1.7205,1.7208,1.7209,1.721,1.7214,1.7215,1.7218,1.7194,1.7169,1.7221,1.7183,1.7212,1.7213,1.7224,1.7224,1.7326,1.7229,1.7229,1.7228,1.7228,0,1.7269,1.7295,1.726,1.7275,1.7302,1.7273,1.7301,1.729,1.7282,1.7294,1.7261,1.7274,1.7242,1.725,1.7232,1.7255,1.7256,1.7247,1.7242,1.7249,1.725,1.7251,1.7245,1.7231,1.723,1.723,1.7229,0,1.7359,1.7337,1.7361,1.7343,1.7339,1.736,1.7343,1.7356,1.7341,1.7357,1.7359,1.7335,1.7343,1.7319,1.7324,1.7312,1.7344,1.7332,1.7346,1.7342,1.7372,1.7369,1.7477,1.7489,1.7386,1.7387,1.7387,0,1.7412,1.743,1.7413,1.7419,1.7414,1.7423,1.7426,1.7397,1.7402,1.7394,1.7408,1.7413,1.7416,1.743,1.7413,1.7416,1.7403,1.7441,1.7403,1.741,1.7402,1.7401,1.7402,1.7448,1.7449,1.745,1.7451,0,1.7507,1.7494,1.7499,1.75,1.7504,1.7504,1.7501,1.7507,1.7476,1.7482,1.749,1.7492,1.7496,1.7501,1.75,1.7493,1.7467,1.7463,1.747,1.7477,1.7484,1.7479,1.7366,1.7461,1.746,1.7459,1.7459,1.7458,1.7578,1.7592,1.7582,1.7588,1.7583,1.7581,1.7591,1.7577,1.7582,1.7583,1.7566,1.7576,1.7567,1.7563,1.7558,1.7565,1.7548,1.7558,1.7561,1.7563,1.7568,1.7484,1.7565,1.7565,1.7565,1.7565,1.7564,0,1.767,1.7661,1.7667,1.7663,1.7668,1.7643,1.7638,1.7643,1.7653,1.7646,1.7649,1.7657,1.7661,1.7644,1.7646,1.7655,1.7643,1.7656,1.7655,1.7653,1.7584,1.7577,1.7666,1.7666,1.7666,1.7666,1.7666,1.7666,1.7718,1.774,1.7726,1.7744,1.7735,1.7745,1.7744,1.7741,1.7735,1.7745,1.7749,1.7737,1.7726,1.7726,1.7728,1.7723,1.7725,1.7742,1.7733,1.7668,1.7658,1.7649,1.7642,1.7743,1.7743,1.7801,1.7801,1.7802]}]]